Satellite-Ground Cal/Val Region Overpasses Predictions

Prediction of Satellite NPP Overpassing Cal/Val Region: PacNW

Region Location: (Latitude: 10.00, Longitude: 139.50) to (Latitude: 22.70, Longitude: 165.60).

Table of predicted overpasses for the next 14.0 days since TLE Epoch: 2/6/2021
Interval Starting Time Starting Location Ending Time Ending Location
1 02/06/2021 02:51:37 ( 10.04, 156.70) 02/06/2021 02:55:12 ( 22.66, 153.70)
2 02/06/2021 15:23:29 ( 22.68, 153.94) 02/06/2021 15:27:05 ( 10.00, 150.93)
3 02/07/2021 02:32:34 ( 10.01, 161.47) 02/07/2021 02:36:10 ( 22.69, 158.45)
4 02/07/2021 15:04:28 ( 22.66, 158.69) 02/07/2021 15:08:03 ( 10.04, 155.69)
5 02/08/2021 02:14:19 ( 12.74, 165.60) 02/08/2021 02:17:08 ( 22.66, 163.22)
6 02/08/2021 03:55:03 ( 10.04, 140.85) 02/08/2021 03:56:41 ( 15.80, 139.51)
7 02/08/2021 14:45:25 ( 22.69, 163.46) 02/08/2021 14:49:01 ( 10.01, 160.44)
8 02/09/2021 03:36:00 ( 10.01, 145.61) 02/09/2021 03:39:36 ( 22.69, 142.59)
9 02/09/2021 14:29:30 ( 11.75, 165.60) 02/09/2021 14:29:59 ( 10.05, 165.21)
10 02/09/2021 16:07:54 ( 22.66, 142.83) 02/09/2021 16:11:29 ( 10.04, 139.83)
11 02/10/2021 03:16:59 ( 10.03, 150.36) 02/10/2021 03:20:34 ( 22.66, 147.36)
12 02/10/2021 15:48:51 ( 22.69, 147.60) 02/10/2021 15:52:27 ( 10.01, 144.58)
13 02/11/2021 02:57:56 ( 10.00, 155.13) 02/11/2021 03:01:32 ( 22.68, 152.11)
14 02/11/2021 15:29:50 ( 22.67, 152.35) 02/11/2021 15:33:25 ( 10.05, 149.35)
15 02/12/2021 02:38:55 ( 10.03, 159.88) 02/12/2021 02:42:30 ( 22.65, 156.88)
16 02/12/2021 15:10:47 ( 22.70, 157.12) 02/12/2021 15:14:23 ( 10.02, 154.10)
17 02/13/2021 02:19:53 ( 10.06, 164.63) 02/13/2021 02:23:28 ( 22.68, 161.63)
18 02/13/2021 14:51:46 ( 22.67, 161.87) 02/13/2021 14:55:21 ( 10.05, 158.87)
19 02/14/2021 03:42:21 ( 10.03, 144.02) 02/14/2021 03:45:56 ( 22.65, 141.02)
20 02/14/2021 14:33:56 ( 18.48, 165.60) 02/14/2021 14:36:20 ( 10.03, 163.62)
21 02/14/2021 16:14:14 ( 22.70, 141.26) 02/14/2021 16:16:17 ( 15.48, 139.51)
22 02/15/2021 03:23:19 ( 10.06, 148.77) 02/15/2021 03:26:54 ( 22.68, 145.77)
23 02/15/2021 15:55:12 ( 22.67, 146.01) 02/15/2021 15:58:47 ( 10.05, 143.01)
24 02/16/2021 03:04:17 ( 10.03, 153.53) 02/16/2021 03:07:52 ( 22.65, 150.53)
25 02/16/2021 15:36:11 ( 22.64, 150.76) 02/16/2021 15:39:46 ( 10.02, 147.76)
26 02/17/2021 02:45:15 ( 10.06, 158.29) 02/17/2021 02:48:50 ( 22.68, 155.28)
27 02/17/2021 15:17:08 ( 22.67, 155.52) 02/17/2021 15:20:43 ( 10.05, 152.52)
28 02/18/2021 02:26:13 ( 10.03, 163.05) 02/18/2021 02:29:48 ( 22.65, 160.05)
29 02/18/2021 14:58:07 ( 22.65, 160.27) 02/18/2021 15:01:42 ( 10.03, 157.27)
30 02/19/2021 02:09:51 ( 19.45, 165.60) 02/19/2021 02:10:46 ( 22.68, 164.80)
31 02/19/2021 03:48:40 ( 10.00, 142.44) 02/19/2021 03:52:10 ( 22.33, 139.51)
32 02/19/2021 14:39:04 ( 22.68, 165.04) 02/19/2021 14:42:39 ( 10.06, 162.04)
